Regional Weather Roundup
Issued by NWS

Home | Current Version | Previous Version | Text Only | Print | Product List | Glossary On
Versions: 1 2 3 4 5 6 7 8 9 10 11 12 13 14 15 16 17 18 19 20 21 22 23 24 25 26 27 28 29 30 31 32 33 34 35 36 37 38 39 40 41 42 43 44 45 46 47 48 49 50
000
ASUS42 KKEY 020310
RWRKEY

FLORIDA REGIONAL WEATHER ROUNDUP FOR THE FLORIDA KEYS
NATIONAL WEATHER SERVICE KEY WEST FLORIDA
1100 PM EDT WED JUL 01 2015

...SOUTH FLORIDA AND THE KEYS...

CITY           SKY/WX    TMP DP  RH WIND       PRES   REMARKS
FORT MYERS     MOCLDY    76  72  87 E3        30.13R
SW REGIONAL AP LGT RAIN  74  71  91 E6        30.14R
NAPLES         MOCLDY    76  72  87 NE3       30.13R
MIAMI          PTCLDY    85  73  67 E12       30.13R HX  91
WEST KENDALL   CLEAR     78  72  81 E7        30.14R
HOMESTEAD      CLEAR     82  74  78 E6        30.13R
MARATHON       PTCLDY    85  75  72 E8        30.13R HX  93
BOCA CHICA NAS CLEAR     84  74  71 E14       30.11R HX  91
KEY WEST INTL  CLEAR     85  77  77 E14       30.12R HX  95

...INTERNATIONAL WEATHER...

CITY           SKY/WX    TMP DP  RH WIND       PRES   REMARKS
NASSAU BAHAMAS MOCLDY    84  77  79 E5        30.16R HX  94
CANCUN MEXICO  PTCLDY    82  81  94 NE5       30.03R HX  95
COZUMEL MEXICO PTCLDY    75  75 100 CALM      30.03R

ADJACENT COASTAL WATERS...

STATION/POSITION TIME  SKY/WX   TEMP    WIND        PRES    WAVE
                                AIR SEA DIR/SP/G            HT/PER
                 (UTC)          (F)     (DEG/KT/KT) (MB)    (FT/S)
PULASKI SHOAL LI 0200            86      90/ 13/ 14 1019.1R
SAND KEY         0250            85     110/ 15/ 17 1019.5R
SOMBRERO KEY     0200            84     100/ 16/ 17 1020.0R
LONG KEY         0200            85 89  110/ 11/ 11 1020.3R
MOLASSES REEF    0200            84 86   90/ 11/ 11 1019.6R
FOWEY ROCKS      NOT AVBL

$$


USA.gov is the U.S. government's official web portal to all federal, state and local government web resources and services.